Regional Weather Roundup
Issued by NWS Portland, ME

Current Version | Previous Version | Text Only | Print | Product List | Glossary Off
Versions: 1 2 3 4 5 6 7 8 9 10 11 12 13 14 15 16 17 18 19 20 21 22 23 24 25 26 27 28 29 30 31 32 33 34 35 36 37 38 39 40 41 42 43 44 45 46 47 48 49 50

001
ASUS41 KGYX 180810
RWRGYX
WEATHER ROUNDUP FOR MAINE AND NEW HAMPSHIRE
NATIONAL WEATHER SERVICE GRAY ME
300 AM EST WED JAN 18 2017

MEZ002-005-006-010-012-015-018-020-021-024-026-027-029-180900-
MAINE

CITY           SKY/WX    TMP DP  RH WIND       PRES   REMARKS
PORTLAND       LGT SNOW  28  26  92 NE13      30.13F VSB 3/4 WCI  17
SANFORD        FLURRIES  32  31  96 E8        30.09F
BAR HARBOR     CLOUDY    23  13  65 N9        30.21F
WISCASSET      LGT SNOW  28  19  69 VRB5      30.16F
ROCKLAND       FLURRIES  28  20  71 NE10G17   30.16F WCI  19
FRYEBURG       LGT SNOW  26  23  88 N7        30.12F FOG
LEWISTONAUBURN LGT SNOW  25  21  86 NE9       30.14F FOG
AUGUSTA        LGT SNOW  21  17  84 NE9       30.16F FOG
WATERVILLE     LGT SNOW  19  16  88 N10       30.15F FOG     WCI   7
BANGOR         CLOUDY    20   6  55 N7        30.21F
GREENVILLE       N/A     14   2  58 E6        30.09F
MILLINOCKET    CLOUDY     9   2  73 CALM      30.25F
HOULTON        CLOUDY     9   1  70 SE9G20    30.23F
PRESQUE ISLE   CLOUDY    -4  -9  79 CALM      30.26S
FRENCHVILLE    CLOUDY     2  -4  76 E9        30.19F
CARIBOU        CLOUDY     1  -4  79 N3        30.24S
$$

NHZ002-005-008-009-011-012-014-180900-
NEW HAMPSHIRE

CITY           SKY/WX    TMP DP  RH WIND       PRES   REMARKS
PORTSMOUTH     FLURRIES  35  33  93 E10       30.05F
ROCHESTER      LGT SNOW  32  30  92 E9        30.06F FOG
NASHUA         LGT SNOW  33  32  96 E3        30.03F FOG
MANCHESTER     LGT SNOW  33  31  92 NE7       30.02F VSB 1
CONCORD        LGT SNOW  33  30  88 E8        30.04F FOG
PLYMOUTH       LGT SNOW  30  28  92 E3        30.05F
BERLIN         LGT SNOW  26  22  84 CALM      30.04F VSB 1
WHITEFIELD     CLOUDY    29  24  82 CALM      29.99F
JAFFREY        LGT SNOW  32  30  92 CALM      29.98S FOG
KEENE          MIX PCPN N/A N/A N/A CALM      29.99F
LEBANON        LGT SNOW  33  31  92 CALM      30.00F FOG
MT WASHINGTON  SNOW      10  10 100 SE24        N/A  VSB 1/16WCI -10
$$

VTZ005-007-008-180900-
VERMONT

CITY           SKY/WX    TMP DP  RH WIND       PRES   REMARKS
ST JOHNSBURY     N/A     31  28  89 MISG      29.98F
MONTPELIER     LGT SNOW  29  29 100 CALM      30.00S FOG
BURLINGTON     CLOUDY    34  32  92 S6        29.94F
$$

MAZ007-012-024-CTZ003-RIZ002-NYZ038-NYZ072-180900-
SOUTHERN NEW ENGLAND AND NY

CITY           SKY/WX    TMP DP  RH WIND       PRES   REMARKS
BOSTON         LGT RAIN  37  37 100 E21       30.03F FOG
WORCESTER      SNOW      31  30  96 NE9       29.95F VSB 1/4
NANTUCKET      LGT RAIN  40  37  89 E14G22    29.96F FOG
PROVIDENCE     LGT RAIN  38  36  92 NE7       29.98F FOG
HARTFORD       CLOUDY    34  34 100 N8        29.96F FOG
ALBANY         LGT RAIN  33  31  92 E3        29.94F FOG
NEW YORK CITY  LGT RAIN  40  38  93 NE14      29.90F FOG
$$

ANZ081-ANZ082-ANZ150-NHZ014-MEZ023>029-180900-
COASTAL MARINE OBSERVATIONS

STATION/POSITION TIME  TEMP    WIND        PRES    WAVE
                       AIR SEA DIR/SP/G            HT/PER
                 (UTC) (F)     (DEG/KT/KT) (MB)    (FT/S)
MOUNT DESERT ROC 0800   33                 1021.6F
MATINICUS ROCK   0700   35     100/ 24/ 26 1020.5F
ISLE OF SHOALS   0700   36      90/ 22/ 24 1017.9F
CASHES LEDGE BUO 0750   34 46  120/ 17/ 19 1019.5F   4/ 5
GEORGES BANK BUO 0750   42 42              1017.4F   3/ 7
$$

.............KEY..............
   WCI - WIND CHILL
   TC  - TEMPERATURE IN CELSIUS
   VSB - VISIBILITY IN MILES
   HX  - HEAT INDEX
   FAIR- INDICATES FEW OR NO CLOUDS BELOW 12,000 FT, WITH NO
         SIGNIFICANT WEATHER AND/OR OBSTRUCTIONS TO VISIBILITY.






USA.gov is the U.S. government's official web portal to all federal, state and local government web resources and services.